Weather History for CYTZ - November, 2012

Change the Weather History Date:

Sunday, November 25, 2012

  Actual Average Record
Temperature  
Mean Temperature 34 °F -  
Max Temperature 38 °F 37 °F 55 °F (2001)
Min Temperature 30 °F 26 °F 12 °F (2005)
Degree Days  
Heating Degree Days 31    
Moisture  
Dew Point 24 °F    
Average Humidity 67    
Maximum Humidity 81    
Minimum Humidity 49    
Precipitation  
Precipitation 0.00 in 0.10 in - ()
Sea Level Pressure  
Sea Level Pressure 29.87 in    
Wind  
Wind Speed 14 mph ()    
Max Wind Speed 21 mph    
Max Gust Speed 24 mph    
Visibility 8.3 miles    
Events Rain , Snow    
Averages and records for this station are not official NWS values.
T = Trace of Precipitation, MM = Missing Value Source: Averaged Metar Reports

Daily Weather History Graph

Daily Weather History Graph

Search for Another Location

Airport or City:

Trip Planner

Search our weather history database for the weather conditions in past years. The results will help you decide how hot, cold, wet, or windy it might be!

Date:

Astronomy

Nov. 25, 2012 Rise Set
Actual Time 7:24 AM EST 4:44 PM EST
Civil Twilight 6:52 AM EST 5:16 PM EST
Nautical Twilight 6:17 AM EST 5:51 PM EST
Astronomical Twilight 5:43 AM EST 6:25 PM EST
Moon 3:03 PM EST (11/25) 4:33 AM EST (11/25)
Length of Visible Light 10h 23m
Length of Day
9h 19m
Waxing Gibbous, 93% of the Moon is Illuminated
Nov 25
Waxing Gibbous
Nov 28
Full
Dec 6
Last Quarter
Dec 13
New
Dec 20
First Quarter

Hourly Weather History & Observations

Time (EST) Temp. Windchill Dew Point Humidity Pressure Visibility Wind Dir Wind Speed Gust Speed Precip Events Conditions
12:00 AM 32.0 °F 22.5 °F 23.0 °F 69% 29.94 in 9.0 mi West 12.7 mph - N/A   Overcast
1:00 AM 33 °F - 21 °F 49% 29.94 in 10 mi West 11.5 mph - -   Overcast
1:00 AM 33.8 °F 25.8 °F 21.2 °F 60% 29.94 in 9.0 mi WNW 10.4 mph - N/A   Overcast
2:00 AM 33.8 °F 23.5 °F 17.6 °F 52% 29.93 in 9.0 mi WNW 16.1 mph - N/A   Overcast
3:00 AM 33.8 °F 24.3 °F 17.6 °F 52% 29.93 in 9.0 mi West 13.8 mph 20.7 mph N/A   Overcast
4:00 AM 33.8 °F 22.5 °F 21.2 °F 60% 29.92 in 9.0 mi WSW 19.6 mph - N/A   Overcast
5:00 AM 33.8 °F 22.8 °F 21.2 °F 60% 29.92 in 9.0 mi West 18.4 mph - N/A   Overcast
6:00 AM 33.8 °F 22.5 °F 21.2 °F 60% 29.91 in 9.0 mi West 19.6 mph - N/A   Overcast
7:00 AM 33 °F - 23 °F 57% 29.90 in 10 mi WSW 18.4 mph - -   Overcast
7:00 AM 33.8 °F 22.8 °F 23.0 °F 65% 29.90 in 9.0 mi WSW 18.4 mph 24.2 mph N/A   Overcast
7:31 AM 33.8 °F 23.2 °F 23.0 °F 65% 29.90 in 9.0 mi WSW 17.3 mph - N/A   Overcast
7:32 AM 33.8 °F 23.2 °F 23.0 °F 65% 29.90 in 9.0 mi WSW 17.3 mph - N/A Rain Light Rain
7:40 AM 32.0 °F 20.8 °F 23.0 °F 69% 29.89 in 7.0 mi WSW 17.3 mph - N/A Rain , Snow Light Snow
7:41 AM 32.0 °F 20.5 °F 23.0 °F 69% 29.89 in 6.0 mi WSW 18.4 mph - N/A Rain , Snow Light Snow
7:43 AM 32.0 °F 21.2 °F 23.0 °F 69% 29.89 in 5.0 mi West 16.1 mph 21.9 mph N/A Snow Light Snow
7:49 AM 32.0 °F 20.5 °F 23.0 °F 69% 29.89 in 7.0 mi West 18.4 mph - N/A Snow Light Snow
7:58 AM 32.0 °F 20.5 °F 24.8 °F 75% 29.89 in 5.0 mi WSW 18.4 mph - N/A Snow Light Snow
8:00 AM 32.0 °F 20.5 °F 24.8 °F 75% 29.89 in 4.0 mi WSW 18.4 mph - N/A Snow Light Snow
8:26 AM 32.0 °F 20.8 °F 24.8 °F 75% 29.90 in 6.0 mi West 17.3 mph - N/A Snow Light Snow
8:41 AM 32.0 °F 22.5 °F 23.0 °F 69% 29.89 in 9.0 mi West 12.7 mph 18.4 mph N/A   Overcast
9:00 AM 33.8 °F 23.5 °F 23.0 °F 65% 29.89 in 9.0 mi WSW 16.1 mph 24.2 mph N/A   Mostly Cloudy
10:00 AM 33.8 °F 23.5 °F 23.0 °F 65% 29.88 in 9.0 mi WSW 16.1 mph - N/A   Overcast
10:37 AM 33.8 °F 23.2 °F 23.0 °F 65% 29.88 in 9.0 mi WSW 17.3 mph - N/A   Overcast
10:43 AM 32.0 °F 21.2 °F 24.8 °F 75% 29.88 in 9.0 mi WSW 16.1 mph 21.9 mph N/A Rain Light Rain
10:47 AM 32.0 °F 21.2 °F 24.8 °F 75% 29.88 in 9.0 mi WSW 16.1 mph 21.9 mph N/A Rain , Snow Light Snow
10:50 AM 33.8 °F 23.5 °F 24.8 °F 70% 29.88 in 9.0 mi WSW 16.1 mph 21.9 mph N/A Rain , Snow Light Snow
10:55 AM 32.0 °F 21.2 °F 24.8 °F 75% 29.88 in 9.0 mi West 16.1 mph 21.9 mph N/A Rain Light Rain
10:58 AM 32.0 °F 21.2 °F 24.8 °F 75% 29.88 in 9.0 mi WSW 16.1 mph 21.9 mph N/A Rain , Snow Light Snow
11:00 AM 32.0 °F 21.6 °F 24.8 °F 75% 29.88 in 8.0 mi WSW 15.0 mph 21.9 mph N/A Rain , Snow Light Snow
11:03 AM 32.0 °F 22.1 °F 24.8 °F 75% 29.88 in 6.0 mi WSW 13.8 mph 20.7 mph N/A Snow Light Snow
11:06 AM 32.0 °F 21.2 °F 24.8 °F 75% 29.88 in 5.0 mi West 16.1 mph - N/A Snow Light Snow
11:12 AM 32.0 °F 22.1 °F 26.6 °F 80% 29.87 in 6.0 mi West 13.8 mph - N/A Snow Light Snow
11:19 AM 33.8 °F 24.3 °F 24.8 °F 70% 29.87 in 9.0 mi WSW 13.8 mph - N/A Snow Light Snow
11:26 AM 33.8 °F 23.5 °F 24.8 °F 70% 29.87 in 9.0 mi WSW 16.1 mph - N/A Snow Light Snow
11:30 AM 33.8 °F 23.9 °F 24.8 °F 70% 29.86 in 9.0 mi WSW 15.0 mph - N/A   Overcast
12:00 PM 33.8 °F 24.3 °F 24.8 °F 70% 29.85 in 9.0 mi West 13.8 mph 19.6 mph N/A   Overcast
1:00 PM 35 °F - 25 °F 55% 29.82 in 10 mi WSW 10.4 mph - -   Overcast
1:00 PM 35.6 °F 27.5 °F 24.8 °F 65% 29.82 in 9.0 mi SW 11.5 mph - N/A   Overcast
1:05 PM 35.6 °F 27.5 °F 24.8 °F 65% 29.82 in 9.0 mi West 11.5 mph - N/A Rain Light Rain
1:14 PM 35.6 °F 27.1 °F 23.0 °F 60% 29.82 in 9.0 mi West 12.7 mph - N/A   Overcast
2:00 PM 37.4 °F 29.3 °F 24.8 °F 60% 29.81 in 9.0 mi WSW 12.7 mph - N/A   Overcast
3:00 PM 37.4 °F 30.8 °F 23.0 °F 56% 29.79 in 9.0 mi West 9.2 mph - N/A   Mostly Cloudy
4:00 PM 35.6 °F 25.5 °F 24.8 °F 65% 29.81 in 9.0 mi West 17.3 mph - N/A   Clear
5:00 PM 33.8 °F 25.3 °F 23.0 °F 65% 29.82 in 9.0 mi West 11.5 mph - N/A   Overcast
6:00 PM 35.6 °F 27.5 °F 24.8 °F 65% 29.83 in 9.0 mi West 11.5 mph - N/A   Overcast
7:00 PM 35 °F - 27 °F 61% 29.85 in 10 mi WSW 15.0 mph - -   Overcast
7:00 PM 35.6 °F 25.9 °F 26.6 °F 70% 29.85 in 9.0 mi WSW 16.1 mph - N/A   Overcast
7:29 PM 35.6 °F 25.9 °F 26.6 °F 70% 29.84 in 9.0 mi WSW 16.1 mph - N/A Rain Light Rain
8:00 PM 33.8 °F 22.2 °F 28.4 °F 81% 29.85 in 6.0 mi WSW 20.7 mph - N/A Rain Light Rain
9:00 PM 35.6 °F 24.5 °F 28.4 °F 75% 29.86 in 8.0 mi WSW 20.7 mph - N/A Rain Light Rain
10:00 PM 35.6 °F 24.5 °F 28.4 °F 75% 29.86 in 9.0 mi WSW 20.7 mph - N/A Rain Light Rain
11:00 PM 35.6 °F 24.5 °F 30.2 °F 81% 29.86 in 8.0 mi WSW 20.7 mph - N/A Rain Light Rain